Location: Corralito
(14.1667°N, 87.1833°W)
Time: 04:12:22
(UTC+00:00)

Cosmos 2142 Rocket - Pass Details

Date: 07 June 2020
Orbit: 953 x 1004 km, 83.0° (Epoch: 04 July)

Event Time Altitude Azimuth Distance (km) Brightness Sun altitude
Rises 02:05:42 0° 356° (N) 3,643 8.0 -24.3°
Reaches altitude 10° 02:08:11 10° 356° (N) 2,703 7.3 -24.8°
Maximum altitude 02:14:23 89° 86° (E) 980 4.4 -26.1°
Enters shadow 02:16:03 52° 176° (S) 1,196 4.7 -26.4°
